| time (UTC) | temp F | wind direction | speed knots | gust knots | rain 1hr in | rain 24hr in | rain mn in | humidity % | barometer mb |
| 20260504201538 | 74 | 258 | 0.9 | 6.1 | 0.00 | 0.00 | 0.00 | 39 | 1010.6 |
| 20260504200038 | 74 | 268 | 0.9 | 3.5 | 0.00 | 0.00 | 0.00 | 38 | 1010.6 |
| 20260504194543 | 74 | 160 | 0.9 | 4.3 | 0.00 | 0.00 | 0.00 | 38 | 1010.6 |
| 20260504193054 | 74 | 327 | 1.7 | 5.2 | 0.00 | 0.00 | 0.00 | 39 | 1010.7 |
| 20260504191538 | 73 | 85 | 1.7 | 4.3 | 0.00 | 0.00 | 0.00 | 40 | 1010.8 |
| 20260504190040 | 73 | 204 | 1.7 | 7.8 | 0.00 | 0.00 | 0.00 | 34 | 1010.9 |
| 20260504184540 | 73 | 234 | 1.7 | 7.8 | 0.00 | 0.00 | 0.00 | 36 | 1011.3 |
| 20260504183044 | 72 | 312 | 1.7 | 3.5 | 0.00 | 0.00 | 0.00 | 40 | 1011.5 |
| 20260504181543 | 72 | 108 | 1.7 | 7.0 | 0.00 | 0.00 | 0.00 | 38 | 1011.9 |
| 20260504180110 | 72 | 352 | 2.6 | 7.8 | 0.00 | 0.00 | 0.00 | 37 | 1012.0 |
| 20260504174539 | 71 | 263 | 2.6 | 7.8 | 0.00 | 0.00 | 0.00 | 36 | 1012.1 |
| 20260504173039 | 71 | 16 | 0.9 | 7.0 | 0.00 | 0.00 | 0.00 | 46 | 1012.3 |
| 20260504171538 | 71 | 288 | 1.7 | 7.0 | 0.00 | 0.00 | 0.00 | 40 | 1012.3 |
| 20260504081536 | 41 | 0 | 0.0 | 0.0 | 0.00 | 0.00 | 0.00 | 71 | 1014.9 |
| 20260504044539 | 46 | 0 | 0.0 | 0.9 | 0.00 | 0.00 | 0.00 | 60 | 1014.8 |
| 20260504043043 | 47 | 269 | 0.0 | 0.9 | 0.00 | 0.00 | 0.00 | 59 | 1014.7 |
| 20260504041538 | 47 | 0 | 0.0 | 1.7 | 0.00 | 0.00 | 0.00 | 58 | 1014.4 |
| 20260504040037 | 47 | 0 | 0.0 | 0.9 | 0.00 | 0.00 | 0.00 | 59 | 1014.3 |
| 20260504034549 | 46 | 153 | 0.0 | 0.0 | 0.00 | 0.00 | 0.00 | 59 | 1014.3 |
| 20260504033041 | 47 | 0 | 0.0 | 1.7 | 0.00 | 0.00 | 0.00 | 58 | 1014.2 |
| 20260504031538 | 47 | 0 | 0.0 | 0.0 | 0.00 | 0.00 | 0.00 | 57 | 1014.2 |
| 20260504030046 | 47 | 0 | 0.0 | 0.0 | 0.00 | 0.00 | 0.00 | 57 | 1014.2 |
| 20260504024542 | 47 | 0 | 0.0 | 0.9 | 0.00 | 0.00 | 0.00 | 57 | 1014.1 |
| 20260504023041 | 48 | 0 | 0.0 | 0.9 | 0.00 | 0.00 | 0.00 | 57 | 1014.1 |
| 20260504021539 | 48 | 0 | 0.0 | 0.0 | 0.00 | 0.00 | 0.00 | 55 | 1014.1 |
| 20260504020048 | 49 | 174 | 0.0 | 0.0 | 0.00 | 0.00 | 0.00 | 54 | 1014.0 |
| 20260504014547 | 49 | 0 | 0.0 | 0.9 | 0.00 | 0.00 | 0.00 | 54 | 1013.9 |
| 20260504013038 | 49 | 0 | 0.0 | 0.0 | 0.00 | 0.00 | 0.00 | 52 | 1013.9 |
| 20260504011537 | 50 | 174 | 0.0 | 0.9 | 0.00 | 0.00 | 0.00 | 51 | 1013.7 |
| 20260504010041 | 50 | 0 | 0.0 | 0.0 | 0.00 | 0.00 | 0.00 | 49 | 1013.5 |
| 20260504004539 | 52 | 174 | 0.0 | 0.9 | 0.00 | 0.00 | 0.00 | 47 | 1013.3 |
| 20260504003038 | 52 | 139 | 0.0 | 0.9 | 0.00 | 0.00 | 0.00 | 46 | 1013.2 |
| 20260504001539 | 53 | 0 | 0.0 | 0.9 | 0.00 | 0.00 | 0.00 | 45 | 1013.0 |
| 20260504000038 | 55 | 0 | 0.0 | 2.6 | 0.00 | 0.00 | 0.00 | 41 | 1012.7 |
| 20260503234540 | 56 | 304 | 0.0 | 3.5 | 0.00 | 0.00 | 0.00 | 39 | 1012.6 |
| 20260503233039 | 57 | 17 | 0.0 | 6.1 | 0.00 | 0.00 | 0.00 | 39 | 1012.4 |
| 20260503231538 | 58 | 354 | 1.7 | 6.1 | 0.00 | 0.00 | 0.00 | 36 | 1012.4 |
| 20260503230038 | 58 | 316 | 0.0 | 5.2 | 0.00 | 0.00 | 0.00 | 36 | 1012.1 |
| 20260503224536 | 59 | 297 | 2.6 | 6.1 | 0.00 | 0.00 | 0.00 | 34 | 1012.2 |
| 20260503223035 | 59 | 342 | 0.9 | 4.3 | 0.00 | 0.00 | 0.00 | 36 | 1012.1 |
| 20260503221535 | 59 | 1 | 1.7 | 5.2 | 0.00 | 0.00 | 0.00 | 34 | 1012.1 |
| 20260503220039 | 60 | 334 | 0.9 | 3.5 | 0.00 | 0.00 | 0.00 | 34 | 1012.1 |
| 20260503214542 | 60 | 318 | 2.6 | 6.1 | 0.00 | 0.00 | 0.00 | 31 | 1012.0 |
| 20260503213038 | 60 | 266 | 0.9 | 8.7 | 0.00 | 0.00 | 0.00 | 34 | 1011.9 |
| 20260503211546 | 60 | 297 | 1.7 | 6.1 | 0.00 | 0.00 | 0.00 | 32 | 1012.1 |
| 20260503210040 | 60 | 5 | 1.7 | 10.4 | 0.00 | 0.00 | 0.00 | 36 | 1012.1 |
| 20260503204539 | 60 | 112 | 1.7 | 7.8 | 0.00 | 0.00 | 0.00 | 36 | 1012.1 |
| 20260503203044 | 60 | 299 | 0.9 | 7.8 | 0.00 | 0.00 | 0.00 | 36 | 1012.2 |